Regional Weather Roundup
Issued by NWS Albany, NY

Home | Current Version | Previous Version | Text Only | Print | Product List | Glossary On
Versions: 1 2 3 4 5 6 7 8 9 10 11 12 13 14 15 16 17 18 19 20 21 22 23 24 25 26 27 28 29 30 31 32 33 34 35 36 37 38 39 40 41 42 43 44 45 46 47 48 49 50
000
ASUS41 KALY 030210
RWRALY

NEW YORK STATE HOURLY WEATHER ROUNDUP
NATIONAL WEATHER SERVICE ALBANY NY
1000 PM EDT SUN AUG 02 2015

NOTE: "FAIR" INDICATES FEW OR NO CLOUDS BELOW 12,000 FEET WITH NO
SIGNIFICANT WEATHER AND/OR NO OBSTRUCTIONS TO VISIBILITY.

NYZ032-033-038>043-046>054-057>066-NYZ062>081-030300-
EAST


CITY           SKY/WX    TMP DP  RH WIND       PRES   REMARKS
ALBANY         PTCLDY    77  57  50 S8        29.82F
GLENS FALLS    CLEAR     72  61  68 SW6       29.80F
POUGHKEEPSIE   CLEAR     71  59  65 CALM      29.85F
NEWBURGH       CLEAR     77  57  50 W5        29.88F
MONTGOMERY     CLEAR     67  59  75 CALM      29.87F
WHITE PLAINS   CLEAR     71  62  73 S6        29.89F
ISLIP          PTCLDY    77  67  71 S8        29.89S
NEW YORK CITY  PTCLDY    79  64  60 S8        29.87F
CENTRAL PARK   CLEAR     78  61  55 CALM      29.91S
$$

NYZ005>009-017-018-044>046-055-056-030300-
CENTRAL


CITY           SKY/WX    TMP DP  RH WIND       PRES   REMARKS
FULTON         MOCLDY    72  58  61 SE5       29.75F
SYRACUSE       CLOUDY    71  59  65 SE3       29.75F
ROME           MOCLDY    71  57  61 E6        29.80S
ELMIRA         PTCLDY    73  61  65 W7        29.82R
BINGHAMTON     CLEAR     70  58  65 S7        29.88R
MONTICELLO     CLEAR     70  57  64 SW5       29.91F
$$

NYZ026>034-041>043-030300-
NORTH


CITY           SKY/WX    TMP DP  RH WIND       PRES   REMARKS
WATERTOWN      CLOUDY    70  59  68 S8        29.72F
FORT DRUM      NOT AVBL
MASSENA        MOCLDY    73  58  59 S8        29.67F
SARANAC LAKE   MOCLDY    65  55  70 SW5       29.82R
PLATTSBURGH    PTCLDY    70  62  76 S5        29.75S
$$

NYZ001>004-010>016-019>021-030300-
WEST


CITY           SKY/WX    TMP DP  RH WIND       PRES   REMARKS
NIAGARA FALLS  CLOUDY    77  62  59 S14       29.66F
BUFFALO        CLOUDY    79  58  48 S17G25    29.70F
DUNKIRK        CLOUDY    79  62  56 S21G30    29.71F
JAMESTOWN      MOCLDY    73  59  60 S10       29.83F
WELLSVILLE     CLEAR     73  56  54 S13G18    29.88F
ROCHESTER      MOCLDY    72  58  61 SE10      29.73F
PENN YAN       PTCLDY    74  60  61 S7        29.79F
$$

             KEY
       WCI = WIND CHILL INDEX
       VSB = VISIBILITY
       HX  = HEAT INDEX
$$


USA.gov is the U.S. government's official web portal to all federal, state and local government web resources and services.